Theta_e
343 344 347 345 343 343 342 343 342 342 342 342 341 340 340 340 338 337 334 333 331 330 329 328 327 326 325 325 326 329 327 327
343 344 344 346 346 342 342 341 341 341 341 340 339 339 338 337 336 336 334 332 331 328 327 328 327 326 324 325 327 329 324 328
343 342 343 343 344 344 342 341 341 340 339 338 335 335 336 334 335 335 333 332 330 328 328 327 327 325 324 324 326 325 326 331
342 344 342 343 339 343 343 340 339 339 337 336 336 337 335 334 334 334 333 331 330 329 327 328 326 323 324 325 326 326 329 328
341 343 345 343 340 341 341 341 339 339 338 338 338 337 337 334 331 329 330 330 327 326 325 327 327 324 323 326 325 327 324 326
342 343 345 346 341 340 341 339 339 337 337 339 336 334 334 332 329 330 330 330 328 327 328 328 327 326 326 325 326 325 325 324
340 344 344 342 342 341 343 342 338 339 338 338 335 333 334 333 332 331 330 330 329 328 328 326 325 325 325 325 323 325 324 324
341 341 343 342 342 345 343 343 340 338 337 336 337 335 335 332 332 331 330 329 329 328 327 326 325 325 324 324 324 323 325 324
331 344 345 343 344 343 342 340 339 336 336 337 337 336 335 333 331 330 330 330 329 329 328 328 325 324 323 323 323 324 324 324
317 341 343 343 343 342 342 339 340 337 337 337 336 335 335 335 330 330 332 330 328 327 327 326 325 323 322 322 323 323 324 324
312 317 338 341 344 342 341 342 339 336 336 336 336 335 334 333 330 331 334 328 328 327 327 327 325 324 322 322 322 322 322 322
305 312 313 329 341 343 341 338 340 338 335 335 336 335 334 333 330 331 330 327 327 327 327 327 326 324 321 321 322 322 322 321
305 305 305 312 332 334 334 333 334 338 336 336 337 335 333 332 329 330 330 327 328 331 327 327 324 326 322 320 321 323 323 321
304 303 304 307 314 330 334 332 334 335 338 337 336 335 334 332 330 329 329 326 329 328 328 324 324 325 319 318 314 318 320 321
300 303 305 305 310 315 332 334 333 333 333 333 335 335 334 334 332 329 331 330 326 329 327 326 322 323 324 319 314 312 316 321
305 301 303 305 307 310 322 328 327 329 332 331 335 333 334 334 332 330 331 329 328 330 328 328 327 322 323 323 326 322 311 311
308 307 302 302 304 307 310 329 330 333 331 332 331 336 337 336 333 332 331 330 330 331 331 330 328 325 322 322 322 321 321 315
306 306 305 301 300 303 308 312 330 330 329 329 330 332 333 336 336 332 332 331 331 331 332 331 329 328 326 325 322 319 318 317
304 304 305 304 298 300 303 308 329 329 329 333 330 328 331 336 335 334 331 333 332 333 332 332 332 329 330 326 326 323 323 321
303 303 302 304 300 298 301 305 312 330 334 333 332 331 330 335 332 336 336 335 334 334 331 331 333 333 331 330 327 326 325 324
Wind_Speed
16 17 15 13 13 15 13 14 14 12 14 14 14 14 15 16 17 17 17 16 15 15 13 12 12 8 3 5 11 14 6 11
13 13 15 14 13 13 13 12 12 13 14 14 14 14 14 15 16 16 16 15 14 14 12 13 11 6 2 6 10 13 10 13
15 14 12 13 14 13 14 14 12 13 14 14 14 11 12 11 17 14 14 14 12 12 14 12 10 4 4 7 9 2 9 12
13 14 14 13 12 14 12 13 11 10 12 13 10 11 11 10 13 14 13 13 11 13 13 13 16 8 5 9 6 5 8 10
16 13 11 13 12 10 8 7 5 7 11 11 10 9 11 7 7 8 9 11 8 9 10 9 12 7 5 3 5 5 4 8
19 17 15 12 10 10 10 8 6 4 7 8 7 6 8 9 7 9 8 9 8 8 7 4 4 2 3 5 2 4 4 8
14 17 15 14 13 11 8 9 8 8 7 8 8 7 7 10 8 9 7 8 9 8 6 6 5 5 4 5 4 4 4 6
15 16 13 14 13 13 9 7 9 6 6 8 8 5 6 6 7 8 8 6 7 6 7 6 6 6 5 4 4 5 4 7
13 19 16 12 14 11 10 10 9 8 7 10 10 7 6 6 7 6 5 7 7 6 6 6 5 5 6 5 5 4 5 4
16 11 18 17 15 10 8 8 9 8 8 9 11 10 10 8 7 6 4 6 7 6 7 6 6 5 6 6 6 5 5 5
16 16 13 16 16 11 10 9 9 7 7 6 11 11 11 9 7 7 6 7 7 7 7 6 6 5 5 5 5 5 6 7
14 12 15 12 9 9 7 8 9 10 8 8 10 9 11 9 8 8 8 8 7 7 6 6 5 6 5 5 4 5 5 5
14 15 14 10 8 7 8 8 6 6 8 12 10 11 11 10 8 8 9 8 8 6 6 7 6 5 4 3 5 6 7 7
13 13 12 10 7 5 5 6 6 7 7 10 10 8 10 11 11 11 11 10 9 8 8 6 7 6 6 5 6 7 9 9
11 13 12 10 11 8 5 7 5 7 6 3 8 9 9 13 13 10 11 10 9 10 10 11 7 7 10 6 5 5 4 8
8 10 13 10 11 10 11 9 7 8 10 9 10 12 13 14 12 11 10 9 9 9 10 9 9 6 7 10 9 7 3 4
13 9 11 12 11 11 10 12 10 8 9 13 13 14 16 15 14 13 11 9 10 9 9 10 8 9 6 8 9 8 8 5
14 14 11 11 12 13 14 18 14 10 8 8 9 9 11 15 15 11 12 11 11 10 11 11 10 9 10 9 9 8 9 8
13 15 15 13 12 13 14 15 12 11 11 11 11 8 8 13 13 12 10 13 12 12 12 12 12 12 11 10 9 9 8 8
15 15 16 15 14 12 11 16 9 10 11 10 10 10 10 13 13 12 12 12 12 11 9 10 12 11 14 12 10 9 9 9
Wind_Direction
148 149 136 115 121 119 123 122 122 120 119 116 113 105 115 118 115 111 112 111 113 114 115 111 108 118 50 340 305 297 88 113
150 149 155 148 143 119 116 116 119 123 118 115 110 111 118 119 116 110 118 118 124 119 124 115 109 111 208 254 300 306 108 80
156 159 156 157 149 137 126 120 119 124 124 127 144 131 154 153 98 115 114 117 120 130 122 124 116 128 285 291 299 105 98 92
162 165 164 165 152 160 150 147 159 159 151 164 175 156 131 123 111 115 117 121 125 129 138 157 176 157 176 245 247 89 97 108
173 166 156 176 156 167 162 162 166 162 156 189 120 134 132 136 134 145 135 154 150 167 160 189 212 157 196 63 109 159 128 102
174 171 167 182 161 173 172 162 150 178 191 185 151 165 166 141 178 167 156 190 150 164 193 127 127 109 125 120 203 113 113 108
180 171 177 182 171 174 170 159 158 188 180 174 173 169 187 169 183 148 194 175 180 187 119 161 158 159 155 166 174 73 126 117
185 179 184 187 184 171 162 170 165 153 186 175 190 193 188 186 163 179 195 185 179 169 157 159 179 157 166 177 176 157 198 153
295 188 185 189 190 175 166 180 165 166 193 175 197 201 177 197 185 202 195 193 170 169 173 178 162 189 171 181 181 185 157 216
338 235 193 188 193 179 184 170 171 175 200 167 199 198 181 199 185 201 184 188 191 178 193 181 176 190 174 191 199 183 187 194
352 350 232 196 190 185 183 164 177 163 194 193 190 197 189 206 193 190 170 191 199 188 196 201 180 192 184 205 213 198 184 201
356 351 1 325 196 188 181 179 193 166 178 196 188 210 198 204 205 189 179 205 196 200 205 200 213 202 211 189 210 233 218 229
3 354 352 351 296 200 187 171 189 196 186 201 188 200 191 201 213 194 191 209 205 196 204 212 222 196 221 223 225 229 249 246
357 352 345 339 316 298 185 179 195 185 200 197 207 207 184 194 218 190 192 208 198 193 214 213 224 201 223 226 230 207 221 227
358 345 337 337 326 310 237 176 183 185 193 221 202 198 210 209 207 210 189 219 191 202 204 216 210 206 223 252 224 251 162 184
24 349 334 335 340 314 295 190 187 198 204 194 194 198 212 210 200 219 210 205 205 191 209 215 235 206 202 245 276 313 266 191
344 355 347 338 332 321 321 203 194 184 197 195 203 195 208 213 197 200 213 207 211 202 203 204 222 240 202 221 241 247 248 269
339 338 341 345 333 332 320 320 200 189 194 210 203 206 200 207 211 198 204 215 208 205 210 207 214 235 243 221 227 228 235 235
334 334 330 339 337 340 327 315 241 205 184 211 194 202 216 208 207 207 202 210 215 212 211 215 207 221 233 245 241 239 243 259
330 328 325 329 333 334 331 318 314 224 228 213 219 206 204 205 203 211 213 216 216 218 229 217 219 220 225 234 244 235 235 241